| time (UTC) | temp F | wind direction | speed MPH | gust MPH | rain 1hr in | rain 24hr in | rain mn in | humidity % | barometer mb |
| 20260503195803 | 63 | 230 | 2.0 | 9.0 | 0.00 | 0.00 | 0.00 | 33 | 1012.7 |
| 20260503195304 | 63 | 309 | 12.0 | 23.0 | 0.00 | 0.00 | 0.00 | 33 | 1012.9 |
| 20260503194303 | 62 | 321 | 10.0 | 16.0 | 0.00 | 0.00 | 0.00 | 34 | 1012.9 |
| 20260503193803 | 62 | 282 | 7.0 | 15.0 | 0.00 | 0.00 | 0.00 | 34 | 1013.0 |
| 20260503193303 | 61 | 335 | 7.0 | 15.0 | 0.00 | 0.00 | 0.00 | 37 | 1013.0 |
| 20260503192804 | 60 | 329 | 8.0 | 15.0 | 0.00 | 0.00 | 0.00 | 35 | 1013.1 |
| 20260503192305 | 61 | 301 | 9.0 | 17.0 | 0.00 | 0.00 | 0.00 | 33 | 1013.2 |
| 20260503191803 | 62 | 305 | 5.0 | 17.0 | 0.00 | 0.00 | 0.00 | 33 | 1013.3 |
| 20260503191304 | 62 | 279 | 8.0 | 14.0 | 0.00 | 0.00 | 0.00 | 32 | 1013.4 |
| 20260503190803 | 62 | 318 | 6.0 | 15.0 | 0.00 | 0.00 | 0.00 | 36 | 1013.2 |
| 20260503190303 | 62 | 326 | 9.0 | 17.0 | 0.00 | 0.00 | 0.00 | 36 | 1013.3 |
| 20260503185803 | 62 | 275 | 7.0 | 16.0 | 0.00 | 0.00 | 0.00 | 35 | 1013.3 |
| 20260503185304 | 62 | 319 | 9.0 | 16.0 | 0.00 | 0.00 | 0.00 | 34 | 1013.4 |
| 20260503184303 | 62 | 350 | 12.0 | 20.0 | 0.00 | 0.00 | 0.00 | 35 | 1013.5 |
| 20260503183803 | 62 | 312 | 8.0 | 12.0 | 0.00 | 0.00 | 0.00 | 36 | 1013.6 |
| 20260503183303 | 62 | 280 | 8.0 | 14.0 | 0.00 | 0.00 | 0.00 | 35 | 1013.7 |
| 20260503182803 | 62 | 290 | 7.0 | 20.0 | 0.00 | 0.00 | 0.00 | 35 | 1013.6 |
| 20260503181803 | 61 | 284 | 7.0 | 16.0 | 0.00 | 0.00 | 0.00 | 38 | 1013.7 |
| 20260503181303 | 60 | 291 | 10.0 | 20.0 | 0.00 | 0.00 | 0.00 | 36 | 1013.9 |
| 20260503180804 | 60 | 296 | 14.0 | 23.0 | 0.00 | 0.00 | 0.00 | 37 | 1013.9 |
| 20260503180303 | 60 | 346 | 9.0 | 16.0 | 0.00 | 0.00 | 0.00 | 37 | 1013.9 |
| 20260503175804 | 60 | 327 | 6.0 | 16.0 | 0.00 | 0.00 | 0.00 | 39 | 1013.9 |
| 20260503174804 | 59 | 325 | 9.0 | 17.0 | 0.00 | 0.00 | 0.00 | 39 | 1014.1 |
| 20260503174304 | 59 | 332 | 8.0 | 15.0 | 0.00 | 0.00 | 0.00 | 38 | 1014.0 |
| 20260503173804 | 59 | 340 | 9.0 | 20.0 | 0.00 | 0.00 | 0.00 | 38 | 1014.2 |
| 20260503173304 | 59 | 328 | 10.0 | 20.0 | 0.00 | 0.00 | 0.00 | 38 | 1014.1 |
| 20260503171804 | 58 | 310 | 7.0 | 13.0 | 0.00 | 0.00 | 0.00 | 38 | 1014.2 |
| 20260503171304 | 57 | 333 | 7.0 | 24.0 | 0.00 | 0.00 | 0.00 | 39 | 1014.3 |
| 20260503170804 | 58 | 343 | 13.0 | 22.0 | 0.00 | 0.00 | 0.00 | 36 | 1014.3 |
| 20260503170303 | 59 | 5 | 12.0 | 21.0 | 0.00 | 0.00 | 0.00 | 37 | 1014.1 |
| 20260503150804 | 54 | 316 | 9.0 | 18.0 | 0.00 | 0.00 | 0.00 | 39 | 1014.9 |
| 20260503150303 | 55 | 358 | 12.0 | 21.0 | 0.00 | 0.00 | 0.00 | 40 | 1014.9 |
| 20260503140303 | 53 | 352 | 13.0 | 21.0 | 0.00 | 0.00 | 0.00 | 44 | 1015.2 |
| 20260503131304 | 50 | 352 | 7.0 | 13.0 | 0.00 | 0.00 | 0.00 | 51 | 1015.2 |
| 20260503130803 | 50 | 313 | 9.0 | 20.0 | 0.00 | 0.00 | 0.00 | 51 | 1015.3 |
| 20260503130303 | 50 | 356 | 6.0 | 21.0 | 0.00 | 0.00 | 0.00 | 52 | 1015.3 |
| 20260503110804 | 41 | 304 | 8.0 | 14.0 | 0.00 | 0.00 | 0.00 | 71 | 1014.3 |
| 20260503110304 | 41 | 311 | 7.0 | 12.0 | 0.00 | 0.00 | 0.00 | 71 | 1014.2 |
| 20260503090304 | 41 | 299 | 8.0 | 13.0 | 0.00 | 0.00 | 0.00 | 75 | 1012.7 |
| 20260503081303 | 41 | 309 | 5.0 | 9.0 | 0.00 | 0.00 | 0.00 | 74 | 1012.4 |
| 20260503080803 | 41 | 300 | 6.0 | 13.0 | 0.00 | 0.00 | 0.00 | 74 | 1012.3 |
| 20260503080304 | 41 | 302 | 7.0 | 12.0 | 0.00 | 0.00 | 0.00 | 74 | 1012.2 |
| 20260503072804 | 42 | 299 | 8.0 | 12.0 | 0.00 | 0.00 | 0.00 | 73 | 1011.8 |
| 20260503072305 | 42 | 317 | 6.0 | 12.0 | 0.00 | 0.00 | 0.00 | 73 | 1011.8 |
| 20260503071804 | 42 | 296 | 9.0 | 12.0 | 0.00 | 0.00 | 0.00 | 73 | 1011.8 |
| 20260503070804 | 42 | 300 | 6.0 | 12.0 | 0.00 | 0.00 | 0.00 | 72 | 1011.8 |
| 20260503070303 | 42 | 294 | 5.0 | 9.0 | 0.00 | 0.00 | 0.00 | 71 | 1011.7 |
| 20260503060303 | 44 | 298 | 3.0 | 6.0 | 0.00 | 0.00 | 0.00 | 68 | 1011.6 |
| 20260503054803 | 44 | 317 | 3.0 | 3.0 | 0.00 | 0.00 | 0.00 | 68 | 1011.6 |
| 20260503054304 | 44 | 311 | 4.0 | 8.0 | 0.00 | 0.00 | 0.00 | 67 | 1011.6 |
| 20260503052803 | 45 | 306 | 5.0 | 8.0 | 0.00 | 0.00 | 0.00 | 66 | 1011.8 |
| 20260503052305 | 45 | 301 | 3.0 | 7.0 | 0.00 | 0.00 | 0.00 | 66 | 1011.8 |
| 20260503051803 | 45 | 305 | 3.0 | 7.0 | 0.00 | 0.00 | 0.00 | 66 | 1011.7 |
| 20260503051304 | 45 | 311 | 3.0 | 7.0 | 0.00 | 0.00 | 0.00 | 65 | 1011.7 |
| 20260503050803 | 46 | 331 | 3.0 | 8.0 | 0.00 | 0.00 | 0.00 | 65 | 1011.7 |
| 20260503050304 | 46 | 307 | 4.0 | 7.0 | 0.00 | 0.00 | 0.00 | 64 | 1011.7 |
| 20260503045803 | 46 | 316 | 4.0 | 8.0 | 0.00 | 0.00 | 0.00 | 64 | 1011.7 |
| 20260503045305 | 46 | 302 | 3.0 | 7.0 | 0.00 | 0.00 | 0.00 | 63 | 1011.8 |
| 20260503044803 | 47 | 308 | 3.0 | 6.0 | 0.00 | 0.00 | 0.00 | 63 | 1011.8 |
| 20260503044304 | 47 | 297 | 3.0 | 3.0 | 0.00 | 0.00 | 0.00 | 62 | 1011.9 |
| 20260503043803 | 47 | 327 | 3.0 | 7.0 | 0.00 | 0.00 | 0.00 | 62 | 1011.9 |
| 20260503043303 | 47 | 328 | 2.0 | 5.0 | 0.00 | 0.00 | 0.00 | 62 | 1011.9 |
| 20260503042803 | 47 | 319 | 2.0 | 3.0 | 0.00 | 0.00 | 0.00 | 61 | 1011.9 |
| 20260503041804 | 48 | 350 | 4.0 | 7.0 | 0.00 | 0.00 | 0.00 | 61 | 1011.9 |
| 20260503041304 | 48 | 336 | 4.0 | 9.0 | 0.00 | 0.00 | 0.00 | 60 | 1011.9 |
| 20260503040303 | 48 | 334 | 5.0 | 5.0 | 0.00 | 0.00 | 0.00 | 60 | 1012.0 |
| 20260503035803 | 48 | 333 | 6.0 | 9.0 | 0.00 | 0.00 | 0.00 | 60 | 1012.0 |
| 20260503035304 | 49 | 332 | 5.0 | 10.0 | 0.00 | 0.00 | 0.00 | 60 | 1012.0 |
| 20260503034803 | 49 | 354 | 6.0 | 12.0 | 0.00 | 0.00 | 0.00 | 59 | 1012.0 |
| 20260503034303 | 49 | 6 | 5.0 | 12.0 | 0.00 | 0.00 | 0.00 | 59 | 1011.9 |
| 20260503033803 | 49 | 352 | 10.0 | 16.0 | 0.00 | 0.00 | 0.00 | 59 | 1011.9 |
| 20260503033304 | 49 | 353 | 10.0 | 15.0 | 0.00 | 0.00 | 0.00 | 58 | 1012.0 |
| 20260503032804 | 50 | 348 | 9.0 | 12.0 | 0.00 | 0.00 | 0.00 | 58 | 1012.0 |
| 20260503032304 | 50 | 346 | 7.0 | 13.0 | 0.00 | 0.00 | 0.00 | 57 | 1012.0 |
| 20260503031303 | 50 | 335 | 4.0 | 7.0 | 0.00 | 0.00 | 0.00 | 57 | 1012.0 |
| 20260503030803 | 50 | 346 | 7.0 | 14.0 | 0.00 | 0.00 | 0.00 | 56 | 1012.0 |
| 20260503030303 | 51 | 323 | 6.0 | 16.0 | 0.00 | 0.00 | 0.00 | 55 | 1011.9 |
| 20260503025803 | 51 | 347 | 7.0 | 16.0 | 0.00 | 0.00 | 0.00 | 55 | 1012.0 |
| 20260503025305 | 51 | 342 | 7.0 | 12.0 | 0.00 | 0.00 | 0.00 | 55 | 1012.0 |
| 20260503024803 | 51 | 0 | 6.0 | 13.0 | 0.00 | 0.00 | 0.00 | 54 | 1012.0 |
| 20260503024304 | 51 | 351 | 6.0 | 14.0 | 0.00 | 0.00 | 0.00 | 54 | 1011.9 |
| 20260503023803 | 51 | 352 | 7.0 | 14.0 | 0.00 | 0.00 | 0.00 | 53 | 1011.9 |
| 20260503023304 | 51 | 345 | 8.0 | 21.0 | 0.00 | 0.00 | 0.00 | 53 | 1011.8 |
| 20260503022804 | 52 | 343 | 7.0 | 12.0 | 0.00 | 0.00 | 0.00 | 52 | 1012.0 |
| 20260503022305 | 52 | 342 | 6.0 | 14.0 | 0.00 | 0.00 | 0.00 | 52 | 1012.0 |
| 20260503021803 | 52 | 355 | 8.0 | 13.0 | 0.00 | 0.00 | 0.00 | 51 | 1011.9 |
| 20260503021303 | 52 | 339 | 6.0 | 16.0 | 0.00 | 0.00 | 0.00 | 51 | 1011.9 |
| 20260503020803 | 52 | 347 | 13.0 | 20.0 | 0.00 | 0.00 | 0.00 | 51 | 1011.8 |
| 20260503020303 | 52 | 340 | 8.0 | 20.0 | 0.00 | 0.00 | 0.00 | 51 | 1011.8 |
| 20260503015803 | 52 | 337 | 9.0 | 14.0 | 0.00 | 0.00 | 0.00 | 51 | 1011.7 |
| 20260503015305 | 52 | 4 | 7.0 | 14.0 | 0.00 | 0.00 | 0.00 | 51 | 1011.7 |
| 20260503014304 | 52 | 335 | 6.0 | 12.0 | 0.00 | 0.00 | 0.00 | 51 | 1011.7 |
| 20260503013804 | 52 | 2 | 6.0 | 9.0 | 0.00 | 0.00 | 0.00 | 51 | 1011.7 |
| 20260503013304 | 52 | 343 | 5.0 | 9.0 | 0.00 | 0.00 | 0.00 | 51 | 1011.7 |
| 20260503012804 | 53 | 329 | 3.0 | 5.0 | 0.00 | 0.00 | 0.00 | 51 | 1011.6 |
| 20260503012305 | 53 | 334 | 6.0 | 9.0 | 0.00 | 0.00 | 0.00 | 50 | 1011.5 |
| 20260503011804 | 53 | 346 | 5.0 | 8.0 | 0.00 | 0.00 | 0.00 | 50 | 1011.5 |
| 20260503011303 | 53 | 352 | 3.0 | 6.0 | 0.00 | 0.00 | 0.00 | 50 | 1011.5 |
| 20260503010303 | 54 | 330 | 5.0 | 9.0 | 0.00 | 0.00 | 0.00 | 50 | 1011.3 |
| 20260503005304 | 54 | 351 | 4.0 | 7.0 | 0.00 | 0.00 | 0.00 | 49 | 1011.2 |
| 20260503004803 | 54 | 332 | 3.0 | 7.0 | 0.00 | 0.00 | 0.00 | 49 | 1011.2 |
| 20260503004304 | 54 | 346 | 3.0 | 5.0 | 0.00 | 0.00 | 0.00 | 49 | 1011.2 |
| 20260503003804 | 54 | 321 | 5.0 | 7.0 | 0.00 | 0.00 | 0.00 | 49 | 1011.1 |
| 20260503003304 | 54 | 348 | 5.0 | 9.0 | 0.00 | 0.00 | 0.00 | 48 | 1011.0 |
| 20260503002305 | 55 | 338 | 3.0 | 8.0 | 0.00 | 0.00 | 0.00 | 48 | 1010.9 |
| 20260503001804 | 55 | 333 | 5.0 | 7.0 | 0.00 | 0.00 | 0.00 | 47 | 1010.9 |
| 20260503000802 | 55 | 321 | 3.0 | 12.0 | 0.00 | 0.00 | 0.00 | 47 | 1010.8 |
| 20260503000302 | 55 | 353 | 6.0 | 9.0 | 0.00 | 0.00 | 0.00 | 46 | 1010.7 |
| 20260502235802 | 55 | 344 | 5.0 | 10.0 | 0.00 | 0.00 | 0.00 | 46 | 1010.7 |
| 20260502235304 | 55 | 358 | 7.0 | 12.0 | 0.00 | 0.00 | 0.00 | 45 | 1010.7 |
| 20260502234802 | 55 | 341 | 7.0 | 12.0 | 0.00 | 0.00 | 0.00 | 45 | 1010.5 |
| 20260502234303 | 56 | 338 | 7.0 | 12.0 | 0.00 | 0.00 | 0.00 | 45 | 1010.5 |
| 20260502233802 | 56 | 359 | 9.0 | 15.0 | 0.00 | 0.00 | 0.00 | 44 | 1010.5 |
| 20260502233302 | 56 | 351 | 9.0 | 16.0 | 0.00 | 0.00 | 0.00 | 44 | 1010.5 |
| 20260502232802 | 56 | 7 | 7.0 | 14.0 | 0.00 | 0.00 | 0.00 | 44 | 1010.5 |
| 20260502232304 | 56 | 348 | 9.0 | 14.0 | 0.00 | 0.00 | 0.00 | 44 | 1010.4 |
| 20260502231802 | 56 | 28 | 7.0 | 12.0 | 0.00 | 0.00 | 0.00 | 43 | 1010.4 |
| 20260502230303 | 56 | 354 | 6.0 | 13.0 | 0.00 | 0.00 | 0.00 | 43 | 1010.3 |
| 20260502224802 | 57 | 4 | 10.0 | 18.0 | 0.00 | 0.00 | 0.00 | 42 | 1010.2 |
| 20260502223804 | 57 | 341 | 6.0 | 12.0 | 0.00 | 0.00 | 0.00 | 42 | 1010.2 |
| 20260502223302 | 58 | 0 | 5.0 | 14.0 | 0.00 | 0.00 | 0.00 | 42 | 1010.2 |
| 20260502222802 | 58 | 342 | 6.0 | 12.0 | 0.00 | 0.00 | 0.00 | 41 | 1010.2 |
| 20260502222305 | 58 | 357 | 7.0 | 13.0 | 0.00 | 0.00 | 0.00 | 42 | 1010.1 |
| 20260502215803 | 59 | 324 | 9.0 | 15.0 | 0.00 | 0.00 | 0.00 | 39 | 1010.1 |
| 20260502215305 | 59 | 341 | 7.0 | 13.0 | 0.00 | 0.00 | 0.00 | 40 | 1010.1 |
| 20260502214303 | 59 | 4 | 10.0 | 15.0 | 0.00 | 0.00 | 0.00 | 39 | 1010.0 |
| 20260502213303 | 60 | 324 | 5.0 | 15.0 | 0.00 | 0.00 | 0.00 | 40 | 1010.1 |
| 20260502212305 | 61 | 3 | 7.0 | 13.0 | 0.00 | 0.00 | 0.00 | 37 | 1009.9 |
| 20260502211804 | 62 | 1 | 9.0 | 13.0 | 0.00 | 0.00 | 0.00 | 37 | 1010.0 |
| 20260502211303 | 62 | 321 | 5.0 | 12.0 | 0.00 | 0.00 | 0.00 | 36 | 1009.8 |
| 20260502210804 | 63 | 331 | 6.0 | 12.0 | 0.00 | 0.00 | 0.00 | 37 | 1009.8 |
| 20260502210304 | 62 | 306 | 9.0 | 14.0 | 0.00 | 0.00 | 0.00 | 36 | 1009.7 |
| 20260502205803 | 62 | 301 | 6.0 | 16.0 | 0.00 | 0.00 | 0.00 | 38 | 1009.7 |
| 20260502205305 | 62 | 356 | 7.0 | 14.0 | 0.00 | 0.00 | 0.00 | 38 | 1009.7 |
| 20260502204303 | 62 | 318 | 10.0 | 18.0 | 0.00 | 0.00 | 0.00 | 37 | 1009.7 |
| 20260502203804 | 62 | 305 | 9.0 | 14.0 | 0.00 | 0.00 | 0.00 | 37 | 1009.7 |
| 20260502203304 | 62 | 332 | 7.0 | 13.0 | 0.00 | 0.00 | 0.00 | 37 | 1009.6 |
| 20260502202803 | 62 | 315 | 10.0 | 20.0 | 0.00 | 0.00 | 0.00 | 38 | 1009.5 |
| 20260502202305 | 62 | 316 | 5.0 | 10.0 | 0.00 | 0.00 | 0.00 | 41 | 1009.6 |
| 20260502201803 | 61 | 336 | 7.0 | 12.0 | 0.00 | 0.00 | 0.00 | 38 | 1009.7 |
| 20260502201303 | 61 | 325 | 5.0 | 10.0 | 0.00 | 0.00 | 0.00 | 39 | 1009.7 |
| 20260502200805 | 62 | 296 | 6.0 | 12.0 | 0.00 | 0.00 | 0.00 | 38 | 1009.7 |